Terug naar catalogus

FENGYUN 1C DEB

ActiefSSO
NORAD 33723·DEBRIS·🇨🇳 China

Gelanceerd May 10, 1999 vanaf Taiyuan Satellite Launch Center

Loading…

Volgende Passages (komende 24 uur)

TLE

VerouderendSource: Space-Track

Epoch: Sep 11, 2026, 01:50 UTC

1 33723U 99025DHL 26254.07657499  .00002225  00000-0  11190-2 0  9994
2 33723  99.1478 346.2333 0096780 283.0502 200.3669 14.15150766674731

Volg FENGYUN 1C DEB in realtime met AllMySat

Download on the App Store